Regional Weather Roundup
Issued by NWS

Home | Current Version | Previous Version | Graphics & Text | Print | Product List | Glossary On
Versions: 1 2 3 4 5 6 7 8 9 10 11 12 13 14 15 16 17 18 19 20 21 22 23 24 25 26 27 28 29 30 31 32 33 34 35 36 37 38 39 40 41 42 43 44 45 46 47 48 49 50
000
ASUS45 KTFX 300704
RWRMT
MONTANA HOURLY WEATHER ROUNDUP
NATIONAL WEATHER SERVICE GREAT FALLS MT
104 AM MDT THU OCT 30 2014

NOTE: "FAIR" INDICATES FEW OR NO CLOUDS BELOW 12000 FEET WITH NO
SIGNIFICANT WEATHER AND/OR OBSTRUCTIONS TO VISIBILITY.

* THESE STATIONS ARE NOT UNDER NWS QUALITY CONTROL. THEY DO NOT
   REPORT WEATHER SUCH AS PRECIPITATION OR FOG.

MTZ001>007-043-300800-
WEST OF THE DIVIDE
CITY           SKY/WX    TMP DP  RH WIND       PRES   REMARKS
KALISPELL      FOG       39  39 100 CALM      30.24F VSB 3/4
MISSOULA       CLOUDY    37  37 100 CALM      30.27S
BUTTE          PTCLDY    28  25  89 CALM      30.29R
MULLAN PASS    FOG       36  36 100 S7        30.23S VSB M1/4 WCI  30
* ANACONDA     CLEAR     30  27  89 S3         N/A
* DEER LODGE   CLEAR     30  28  92 N/A        N/A
* ESSEX        N/A       40  39  96 W2         N/A
* HAMILTON APT PTCLDY    37  34  89 S3         N/A
* LIBBY APT    PTCLDY    43  39  86 N/A        N/A
* LINCOLN      N/A       32  31  96 NE2        N/A
* LOOKOUT PASS N/A       40  40 100 S5         N/A   WCI  36
* POLSON       N/A       38  38 100 N/A        N/A
* RONAN APT    CLEAR     36  34  92 N/A        N/A
* SEELEY LAKE  N/A       29  28  96 N/A        N/A
* THOMP F APT  CLEAR     39  26  60 N6         N/A   WCI  35
* YAAK HILL    N/A       45  42  89 SE1        N/A
$$

MTZ008-052>055-300800-
SOUTHWEST MONTANA
CITY           SKY/WX    TMP DP  RH WIND       PRES   REMARKS
BOZEMAN        PTCLDY    34  27  76 S9        30.27R WCI  27
DILLON         PTCLDY    34  27  76 SE3       30.27R
W YELLOWSTONE  PTCLDY    27  25  92 CALM      30.31S
* ENNIS APT    PTCLDY    39  25  57 N3         N/A
* THREE FORKS  PTCLDY    28  28 100 N/A        N/A
* BOULDER HILL N/A       36  22  57 S5         N/A   WCI  32
* RAYNOLDS PAS N/A       31  15  51 S6         N/A   WCI  25
* WHITEHALL    N/A       34  25  70 N3         N/A
* WISE RIVER   N/A       30  27  89 SW3        N/A
$$

MTZ009>010-012-014-046-048-049-054-300800-
EAST SLOPES AND CENTRAL MONTANA
CITY           SKY/WX    TMP DP  RH WIND       PRES   REMARKS
CUT BANK       CLEAR     37  30  76 W5        30.18R WCI  33
GREAT FALLS    CLEAR     39  34  82 SW9       30.20R WCI  33
HELENA         CLEAR     37  32  82 CALM      30.25R
MALMSTROM AFB  CLEAR     43  34  71 SW10      30.21R
* CONRAD       CLEAR     28  28 100 N/A        N/A
* DEARBORN     N/A       46  34  63 S4         N/A
* EAST GLACIER N/A       43  31  63 W20G27     N/A
* MONARCH      N/A       41  22  47 SW8G17     N/A
* ROGERS PASS  N/A       34  31  89 W2         N/A
* SAINT MARY   N/A       44  33  65 S8G16      N/A
* SWEET GRASS  N/A       41  32  70 SE14       N/A
$$

MTZ011-013-016-021-035-040-045-047-050-051-300800-
NORTH CENTRAL MONTANA
CITY           SKY/WX    TMP DP  RH WIND       PRES   REMARKS
HAVRE          PTCLDY    37  32  82 S6        30.17R WCI  32
LEWISTOWN      CLEAR     36  28  73 SW10      30.21R WCI  29
* N BAR RANCH  CLEAR     37  28  70 NW6       30.22R WCI  32
* CHESTER      N/A       40  32  73 N1         N/A
* DENTON       N/A       40  31  70 SW11       N/A   WCI  33
* GEYSER       N/A       38  30  73 W4         N/A
* JUDITH GAP   N/A       39  26  60 SW5        N/A   WCI  35
* LOMA         N/A       41  32  70 SW4        N/A
$$

MTZ017>020-022>027-061-062-300800-
NORTHEAST MONTANA
CITY           SKY/WX    TMP DP  RH WIND       PRES   REMARKS
GLASGOW        CLEAR     36  30  79 W3        30.17R
GLENDIVE       CLEAR     34  30  85 W9        30.15R WCI  27
JORDAN         CLEAR     30  28  92 N3        30.16R
SIDNEY         CLEAR     36  32  85 NW6       30.14R WCI  31
WOLF POINT     PTCLDY    34  30  85 CALM      30.18R
* BEAVER HILL  N/A       35  32  89 NW9        N/A   WCI  28
* CIRCLE       N/A       38  33  82 N/A        N/A
* LINDSAY DVD  N/A       33  31  92 NW8        N/A   WCI  26
* NAVAJO       N/A       36  32  85 N13        N/A   WCI  27
* PLENTYWOOD A N/A       29 N/A N/A N/A        N/A
* POPLAR APT   N/A       37  34  89 N/A        N/A
$$

MTZ028>042-056>058-300800-
SOUTHCENTRAL AND SOUTHEAST MONTANA
CITY           SKY/WX    TMP DP  RH WIND       PRES   REMARKS
BAKER          CLEAR     37  32  82 W8        30.13R WCI  31
BILLINGS       FAIR      46  28  50 W14       30.22R
LIVINGSTON     CLEAR     32  25  75 SW6       30.25S WCI  26
MILES CITY     MOCLDY    39  30  70 W9        30.15R WCI  33
* FORSYTH APT  CLEAR     45  30  56 W5         N/A
* LAUREL APT   CLEAR     45  21  38 N/A        N/A
* ROUNDUP APT  CLEAR     41  27  58 N/A        N/A
* ALZADA       N/A       36  29  76 W3         N/A
* LAME DEER    N/A       46  30  54 W10        N/A
* REED POINT   N/A       36  29  76 W2G8       N/A
* ROSCOE HILL  N/A       42  16  35 E8         N/A
$$

REGIONAL REPORTS...DAKOTAS
CITY           SKY/WX    TMP DP  RH WIND       PRES   REMARKS
WILLISTON      CLEAR     36  30  79 NW10      30.12R WCI  29
DICKINSON      CLEAR     34  30  85 NW8       30.06R WCI  27
BEACH          N/A       36  36 100 NW12      30.11R WCI  28
CROSBY         CLOUDY    36  36 100 N9        30.12R WCI  29
TIOGA          CLEAR     32  32 100 NW5       30.11R WCI  27
BISMARCK       PTCLDY    36  36 100 CALM      30.01R
GRAND FORKS    CLOUDY    37  34  89 SE7       29.99R WCI  32
FARGO          CLOUDY    39  36  89 SE8       29.98S WCI  33
BUFFALO SD     CLEAR     39  34  82 NW16      30.03R WCI  30
RAPID CITY     CLEAR     41  32  70 NW10      30.12R
$$

REGIONAL REPORTS...WYOMING/IDAHO/WASHINGTON
CITY           SKY/WX    TMP DP  RH WIND       PRES   REMARKS
GILLETTE       CLEAR     39  25  57 W10       30.20R WCI  32
SHERIDAN       PTCLDY    45  28  51 CALM      30.23R
CODY           MOCLDY    37  25  62 S3        30.25R
YELLOWSTONE LA PTCLDY    27  25  92 CALM      30.36R
SALMON         PTCLDY    36  32  85 CALM      30.26S
MULLAN PASS    FOG       36  36 100 S7        30.23S VSB M1/4 WCI  30
SAND POINT     CLOUDY    41  41 100 CALM      30.23R
SPOKANE        FOG       46  45  96 NE8       30.18S VSB 2

$$




USA.gov is the U.S. government's official web portal to all federal, state and local government web resources and services.